Portada
METAR-TAF:

METAR-TAF

Aeroports :

NWS Office

Majuro, Illes Marshall

latitud: 07-05N, longitud: 171-12E, altitud: 4 m

Observació

L'informe es va fer fa 57 minuts, a les 12:54 UTC
Vent 4 kt del Est/Sud-Est
Temperatura 28°C
Humitat 79%
Pressió 1011 hPa
Visibilitat: 24.1 km
Escasses núvols a una alçada de 1500 ft
Núvols disperses a una alçada de 12000 ft
Cel ennuvolat a una alçada de 30000 ft

METAR: PKMR 171254Z 11004KT 15SM FEW015 SCT120 BKN300 28/24 A2985 RMK SLP110 T02750238

Hora: 01:51 (13:51 UTC)


TAF: manca

Observacions i pronòstics meteorològics de més de 4000 aeroports (METAR i TAF).

Les estacions disponibles són els punts grocs i vermells al mapa.

Posi el ratolí al punt desitjat per veure el nom de l'estació.

Feu clic per veure les observacions i els pronòstics meteorològics.

Per canviar el mapa: feu clic els botons verds amb una creu de color negre per apropar; al botó verd amb un guió per allunyar la imatge; o en les fletxes verdes per a mapes adjacents.


METAR-TAF: